Weather History for Moline, IL

Change the Weather History Date:

Wednesday, January 7, 2015

  Actual Average Record
Temperature  
Mean Temperature -1 °F 23 °F  
Max Temperature 8 °F 31 °F 63 °F (2008)
Min Temperature -11 °F 15 °F -26 °F (1887)
Degree Days  
Heating Degree Days 66 42  
Month to date heating degree days 353 294  
Since 1 July heating degree days 2893 2715  
Cooling Degree Days 0 0  
Month to date cooling degree days 0 0  
Year to date cooling degree days 0 0  
Moisture  
Dew Point -11 °F    
Average Humidity 66    
Maximum Humidity 79    
Minimum Humidity 53    
Precipitation  
Precipitation 0.00 in 0.05 in 0.94 in (1907)
Month to date precipitation 0.83 0.36  
Year to date precipitation 0.83 0.36  
Snow  
Snow 0.00 in 0.30 in - ()
Month to date snowfall 9.5 2.1  
Since 1 July snowfall 14.1 12.6  
Snow Depth 6.00 in    
Sea Level Pressure  
Sea Level Pressure 30.78 in    
Wind  
Wind Speed 16 mph (WNW)    
Max Wind Speed 29 mph    
Max Gust Speed 37 mph    
Visibility 9 miles    
Events      
T = Trace of Precipitation, MM = Missing Value Source: NWS Daily Summary

Daily Weather History Graph

Daily Weather History Graph

Search for Another Location

Airport:

Trip Planner

Search our weather history database for the weather conditions in past years. The results will help you decide how hot, cold, wet, or windy it might be!

Date:

Astronomy

Jan. 07, 2015 Rise Set
Actual Time 7:28 AM CST 4:48 PM CST
Civil Twilight 6:57 AM CST 5:19 PM CST
Nautical Twilight 6:22 AM CST 5:54 PM CST
Astronomical Twilight 5:49 AM CST 6:27 PM CST
Moon 7:35 PM CST (1/7) 8:39 AM CST (1/7)
Length of Visible Light 10h 22m
Length of Day
9h 20m
Waning Gibbous, 94% of the Moon is Illuminated
Jan 7
Waning Gibbous
Jan 13
Last Quarter
Jan 20
New
Jan 26
First Quarter
Feb 3
Full

Hourly Weather History & Observations

Time (CST) Temp. Windchill Dew Point Humidity Pressure Visibility Wind Dir Wind Speed Gust Speed Precip Events Conditions
12:00 AM 8.1 °F -13.8 °F -0.0 °F 70% 30.45 in 2.0 mi NW 26.5 mph 35.7 mph 0.00 in   Mostly Cloudy
12:09 AM 8.1 °F -13.0 °F -0.9 °F 67% 30.45 in 3.0 mi NW 24.2 mph 36.8 mph 0.00 in   Mostly Cloudy
12:19 AM 7.0 °F -14.5 °F -2.0 °F 67% 30.46 in 3.0 mi NW 24.2 mph 36.8 mph 0.00 in   Partly Cloudy
12:52 AM 6.1 °F -14.3 °F -2.9 °F 67% 30.53 in 6.0 mi NW 20.7 mph 29.9 mph 0.00 in   Haze
1:52 AM 5.0 °F -16.2 °F -4.0 °F 66% 30.58 in 8.0 mi NW 21.9 mph 29.9 mph N/A   Clear
2:52 AM 3.0 °F -16.7 °F -6.0 °F 66% 30.61 in 9.0 mi NW 17.3 mph 25.3 mph N/A   Clear
3:52 AM 1.9 °F -19.8 °F -7.1 °F 66% 30.65 in 9.0 mi NW 20.7 mph 27.6 mph N/A   Clear
4:52 AM 1.4 °F -19.4 °F -7.6 °F 66% 30.63 in 10.0 mi NW 18.4 mph 32.2 mph N/A   Clear
5:52 AM -0.0 °F -19.4 °F -9.9 °F 63% 30.72 in 10.0 mi NW 15.0 mph 25.3 mph N/A   Clear
6:52 AM -2.0 °F -23.9 °F -11.9 °F 63% 30.75 in 10.0 mi NW 18.4 mph 24.2 mph N/A   Clear
7:52 AM -2.2 °F -23.5 °F -11.2 °F 66% 30.75 in 9.0 mi NW 17.3 mph - N/A   Clear
8:52 AM -2.0 °F -24.4 °F -13.0 °F 60% 30.84 in 10.0 mi NW 19.6 mph 29.9 mph N/A   Clear
9:52 AM -0.9 °F -20.6 °F -11.9 °F 60% 30.88 in 10.0 mi NW 15.0 mph 27.6 mph N/A   Clear
10:52 AM -0.9 °F -23.5 °F -13.0 °F 57% 30.90 in 5.0 mi NW 20.7 mph 31.1 mph N/A   Haze
10:53 AM -0.9 °F -23.0 °F -13.0 °F 57% 30.85 in 10.0 mi NW 19.6 mph 31.1 mph N/A   Clear
11:52 AM -0.0 °F -20.7 °F -11.9 °F 57% 30.91 in 10.0 mi NW 17.3 mph 29.9 mph N/A   Clear
12:52 PM -0.0 °F -22.4 °F -11.9 °F 57% 30.90 in 10.0 mi NW 20.7 mph 27.6 mph N/A   Scattered Clouds
1:52 PM -0.0 °F -21.8 °F -11.0 °F 60% 30.92 in 10.0 mi NW 19.6 mph 31.1 mph N/A   Scattered Clouds
2:52 PM -0.0 °F -19.4 °F -11.0 °F 60% 30.92 in 10.0 mi WNW 15.0 mph 26.5 mph N/A   Scattered Clouds
3:52 PM -0.9 °F -23.5 °F -11.9 °F 60% 30.94 in 6.0 mi WNW 20.7 mph 28.8 mph 0.00 in   Scattered Clouds
4:52 PM -2.0 °F -21.9 °F -13.0 °F 60% 30.93 in 10.0 mi NW 15.0 mph - N/A   Clear
5:52 PM -4.0 °F -19.0 °F -14.1 °F 62% 30.92 in 10.0 mi West 8.1 mph - N/A   Clear
6:52 PM -4.0 °F -23.0 °F -13.0 °F 65% 30.92 in 10.0 mi WNW 12.7 mph - N/A   Clear
7:52 PM -6.0 °F -23.6 °F -14.1 °F 68% 30.89 in 10.0 mi West 10.4 mph - N/A   Clear
8:52 PM -6.0 °F -23.6 °F -14.1 °F 68% 30.87 in 10.0 mi West 10.4 mph - N/A   Clear
9:52 PM -8.0 °F -22.5 °F -14.1 °F 75% 30.84 in 10.0 mi WSW 6.9 mph - N/A   Clear
10:52 PM -9.0 °F -26.4 °F -15.0 °F 75% 30.81 in 10.0 mi West 9.2 mph - N/A   Clear
11:52 PM -11.0 °F -26.2 °F -17.0 °F 75% 30.77 in 10.0 mi SW 6.9 mph - N/A   Clear